EW8865 Weather Reports


Display with metric or nautical units.
time (UTC)temp
F
wind
direction
speed
MPH
gust
MPH
rain 1hr
in
rain 24hr
in
rain mn
in
humidity
%
barometer
mb
20260510152004 58 92 5.0 13.0 0.00 0.00 0.00 60 1015.6
20260510151503 58 73 7.0 12.0 0.00 0.00 0.00 62 1015.7
20260510151004 57 61 6.0 13.0 0.00 0.00 0.00 63 1015.7
20260510150503 57 57 6.0 13.0 0.00 0.00 0.00 61 1015.8
20260510145504 58 50 7.0 13.0 0.00 0.00 0.00 60 1015.9
20260510145004 58 74 5.0 12.0 0.00 0.00 0.00 61 1016.0
20260510144504 57 46 6.0 15.0 0.00 0.00 0.00 61 1016.1
20260510144003 58 50 9.0 16.0 0.00 0.00 0.00 60 1016.1
20260510143504 58 69 6.0 14.0 0.00 0.00 0.00 62 1016.2
20260510143005 57 83 7.0 14.0 0.00 0.00 0.00 61 1016.2
20260510142503 57 85 5.0 12.0 0.00 0.00 0.00 62 1016.4
20260510142004 57 37 7.0 15.0 0.00 0.00 0.00 63 1016.4
20260510141504 57 82 9.0 13.0 0.00 0.00 0.00 62 1016.4
20260510141004 57 95 6.0 13.0 0.00 0.00 0.00 62 1016.5
20260510140004 57 66 3.0 12.0 0.00 0.00 0.00 65 1016.5
20260510135503 57 74 5.0 12.0 0.00 0.00 0.00 65 1016.5
20260510135004 57 69 6.0 14.0 0.00 0.00 0.00 63 1016.5
20260510134004 57 84 7.0 13.0 0.00 0.00 0.00 64 1016.6
20260510133503 57 62 7.0 17.0 0.00 0.00 0.00 62 1016.6
20260510133004 57 85 5.0 17.0 0.00 0.00 0.00 65 1016.7
20260510132503 57 88 8.0 16.0 0.00 0.00 0.00 63 1016.7
20260510132004 57 86 6.0 15.0 0.00 0.00 0.00 66 1016.6
20260510131503 56 60 7.0 13.0 0.00 0.00 0.00 67 1016.7
20260510131003 56 52 8.0 16.0 0.00 0.00 0.00 66 1016.7
20260510130503 55 42 7.0 15.0 0.00 0.00 0.00 67 1016.8
20260510130004 55 45 6.0 14.0 0.00 0.00 0.00 67 1016.9
20260510125504 56 44 5.0 9.0 0.00 0.00 0.00 67 1016.9
20260510125003 55 67 6.0 13.0 0.00 0.00 0.00 68 1016.9
20260510124503 55 87 9.0 16.0 0.00 0.00 0.00 68 1016.9
20260510123504 54 50 9.0 17.0 0.00 0.00 0.00 70 1017.0
20260510123004 54 31 9.0 17.0 0.00 0.00 0.00 70 1017.0
20260510122503 54 44 9.0 18.0 0.00 0.00 0.00 70 1017.2
20260510122005 54 45 7.0 16.0 0.00 0.00 0.00 70 1017.2
20260510121504 54 40 9.0 15.0 0.00 0.00 0.00 70 1017.2
20260510121004 54 30 10.0 18.0 0.00 0.00 0.00 70 1017.3
20260510120504 54 36 6.0 15.0 0.00 0.00 0.00 71 1017.3
20260510120005 54 28 10.0 16.0 0.00 0.00 0.00 71 1017.3
20260510115504 53 54 5.0 14.0 0.00 0.00 0.00 72 1017.4
20260510114504 53 52 6.0 15.0 0.00 0.00 0.00 73 1017.6
20260510113504 53 52 6.0 12.0 0.00 0.00 0.00 73 1017.6
20260510113004 52 75 6.0 13.0 0.00 0.00 0.00 73 1017.7
20260510112503 52 66 7.0 15.0 0.00 0.00 0.00 73 1017.7
20260510112004 52 68 7.0 17.0 0.00 0.00 0.00 74 1017.8
20260510111003 52 76 6.0 12.0 0.00 0.00 0.00 73 1017.8
20260510110004 52 73 6.0 20.0 0.00 0.00 0.00 74 1017.8
20260510105004 52 52 9.0 21.0 0.00 0.00 0.00 74 1017.9
20260510104503 52 64 7.0 15.0 0.00 0.00 0.00 74 1017.9
20260510104004 52 55 7.0 15.0 0.00 0.00 0.00 74 1017.9
20260510103504 52 67 7.0 14.0 0.00 0.00 0.00 75 1018.0
20260510103004 52 62 9.0 16.0 0.00 0.00 0.00 74 1018.0
20260510102004 52 56 6.0 12.0 0.00 0.00 0.00 76 1018.0
20260510101004 51 57 6.0 15.0 0.00 0.00 0.00 77 1018.0
20260510100503 51 97 6.0 16.0 0.00 0.00 0.00 77 1018.1
20260510100004 51 65 7.0 14.0 0.00 0.00 0.00 77 1018.1
20260510095504 51 61 6.0 15.0 0.00 0.00 0.00 77 1018.1
20260510094504 50 59 5.0 13.0 0.00 0.00 0.00 77 1018.1
20260510094003 50 27 6.0 15.0 0.00 0.00 0.00 77 1018.1
20260510093504 51 42 6.0 18.0 0.00 0.00 0.00 77 1018.1
20260510093003 51 55 5.0 13.0 0.00 0.00 0.00 78 1018.1
20260510092503 50 70 4.0 12.0 0.00 0.00 0.00 78 1018.1
20260510092004 50 65 4.0 10.0 0.00 0.00 0.00 78 1018.1
20260510091504 50 64 5.0 12.0 0.00 0.00 0.00 79 1018.1
20260510090503 50 50 7.0 15.0 0.00 0.00 0.00 79 1018.2
20260510090003 50 41 6.0 14.0 0.00 0.00 0.00 79 1018.2
20260510084504 50 79 5.0 12.0 0.00 0.00 0.00 79 1018.2
20260510084004 49 67 7.0 20.0 0.00 0.00 0.00 79 1018.2
20260510083504 49 69 10.0 18.0 0.00 0.00 0.00 79 1018.2
20260510083005 49 72 7.0 16.0 0.00 0.00 0.00 79 1018.3
20260510082503 49 52 8.0 16.0 0.00 0.00 0.00 80 1018.2
20260510081503 49 70 9.0 13.0 0.00 0.00 0.00 80 1018.3
20260510081003 49 61 5.0 12.0 0.00 0.00 0.00 80 1018.3
20260510080504 49 33 7.0 18.0 0.00 0.00 0.00 80 1018.3
20260510080003 49 61 9.0 18.0 0.00 0.00 0.00 80 1018.3
20260510075003 50 43 6.0 16.0 0.00 0.00 0.00 80 1018.1
20260510074003 50 74 5.0 15.0 0.00 0.00 0.00 80 1018.0
20260510073004 50 58 9.0 17.0 0.00 0.00 0.00 80 1017.9
20260510072503 50 65 9.0 17.0 0.00 0.00 0.00 80 1017.8
20260510072004 50 52 6.0 12.0 0.00 0.00 0.00 80 1017.9
20260510071503 50 63 7.0 15.0 0.00 0.00 0.00 80 1017.9
20260510071004 50 66 7.0 14.0 0.00 0.00 0.00 80 1017.8
20260510070503 50 66 10.0 16.0 0.00 0.00 0.00 80 1017.7
20260510065503 50 54 9.0 14.0 0.00 0.00 0.00 80 1017.7
20260510065004 50 69 5.0 15.0 0.00 0.00 0.00 80 1017.7
20260510064503 50 61 9.0 17.0 0.00 0.00 0.00 80 1017.6
20260510064004 50 60 9.0 18.0 0.00 0.00 0.00 79 1017.6
20260510063503 50 65 7.0 14.0 0.00 0.00 0.00 79 1017.6
20260510063003 50 70 8.0 15.0 0.00 0.00 0.00 79 1017.6
20260510062504 50 41 7.0 20.0 0.00 0.00 0.00 79 1017.6
20260510062003 50 48 5.0 12.0 0.00 0.00 0.00 80 1017.6
20260510061504 50 61 6.0 15.0 0.00 0.00 0.00 80 1017.6
20260510061004 50 70 7.0 12.0 0.00 0.00 0.00 80 1017.5
20260510060504 49 61 5.0 12.0 0.00 0.00 0.00 80 1017.6
20260510060004 49 62 6.0 13.0 0.00 0.00 0.00 80 1017.6
20260510055503 49 52 3.0 10.0 0.00 0.00 0.00 80 1017.5
20260510055004 49 33 8.0 13.0 0.00 0.00 0.00 80 1017.5
20260510054004 49 60 5.0 13.0 0.00 0.00 0.00 80 1017.5
20260510053503 49 51 3.0 12.0 0.00 0.00 0.00 80 1017.4
20260510053003 49 53 6.0 13.0 0.00 0.00 0.00 80 1017.4
20260510052505 49 57 5.0 12.0 0.00 0.00 0.00 80 1017.4
20260510052003 49 66 6.0 12.0 0.00 0.00 0.00 80 1017.5
20260510051504 49 60 6.0 12.0 0.00 0.00 0.00 80 1017.5
20260510051003 49 58 6.0 13.0 0.00 0.00 0.00 79 1017.4
20260510050503 49 55 6.0 14.0 0.00 0.00 0.00 79 1017.5
20260510050004 49 56 7.0 15.0 0.00 0.00 0.00 79 1017.5
20260510045003 49 66 5.0 12.0 0.00 0.00 0.00 79 1017.4
20260510044503 49 43 7.0 14.0 0.00 0.00 0.00 79 1017.3
20260510044004 49 52 7.0 14.0 0.00 0.00 0.00 79 1017.4
20260510043503 49 53 6.0 17.0 0.00 0.00 0.00 79 1017.4
20260510043003 49 51 7.0 20.0 0.00 0.00 0.00 79 1017.4
20260510042003 50 62 8.0 17.0 0.00 0.00 0.00 79 1017.5
20260510041504 50 39 9.0 17.0 0.00 0.00 0.00 79 1017.5
20260510040504 50 57 6.0 15.0 0.00 0.00 0.00 79 1017.6
20260510040004 50 59 7.0 12.0 0.00 0.00 0.00 79 1017.5
20260510035004 50 56 10.0 18.0 0.00 0.00 0.00 79 1017.7
20260510034504 50 60 9.0 15.0 0.00 0.00 0.00 79 1017.7
20260510034003 50 52 6.0 15.0 0.00 0.00 0.00 79 1017.7
20260510033503 50 47 8.0 15.0 0.00 0.00 0.00 79 1017.7
20260510033004 50 47 7.0 13.0 0.00 0.00 0.00 79 1017.7
20260510032503 50 57 7.0 12.0 0.00 0.00 0.00 79 1017.8
20260510032004 50 57 9.0 14.0 0.00 0.00 0.00 79 1017.9
20260510031004 50 51 5.0 14.0 0.00 0.00 0.00 79 1017.9
20260510030504 50 63 6.0 12.0 0.00 0.00 0.00 79 1017.8
20260510025503 50 46 6.0 12.0 0.00 0.00 0.00 79 1017.9
20260510025004 50 46 6.0 12.0 0.00 0.00 0.00 79 1017.9
20260510024503 50 59 6.0 12.0 0.00 0.00 0.00 79 1018.0
20260510024003 50 41 7.0 13.0 0.00 0.00 0.00 79 1017.9
20260510023504 50 56 7.0 15.0 0.00 0.00 0.00 78 1018.0
20260510023005 50 44 7.0 14.0 0.00 0.00 0.00 78 1017.9
20260510022504 50 41 6.0 13.0 0.00 0.00 0.00 78 1017.9
20260510022003 50 45 6.0 12.0 0.00 0.00 0.00 78 1017.9
20260510021503 50 49 6.0 14.0 0.00 0.00 0.00 78 1017.9
20260510021005 50 58 8.0 16.0 0.00 0.00 0.00 77 1017.9
20260510015004 51 38 9.0 14.0 0.00 0.00 0.00 77 1018.0
20260510014503 51 44 5.0 14.0 0.00 0.00 0.00 77 1017.9
20260510014003 51 47 7.0 14.0 0.00 0.00 0.00 77 1017.9
20260510013504 51 53 7.0 14.0 0.00 0.00 0.00 76 1017.9
20260510012503 51 49 7.0 12.0 0.00 0.00 0.00 76 1018.0
20260510012004 51 47 3.0 10.0 0.00 0.00 0.00 75 1018.0
20260510011503 52 61 2.0 9.0 0.00 0.00 0.00 75 1018.0
20260510011003 52 65 4.0 10.0 0.00 0.00 0.00 75 1018.0
20260510010504 52 59 6.0 12.0 0.00 0.00 0.00 76 1018.0
20260510010004 52 49 6.0 13.0 0.00 0.00 0.00 76 1018.0
20260510005504 52 52 5.0 12.0 0.00 0.00 0.00 76 1017.9
20260510005004 52 62 5.0 14.0 0.00 0.00 0.00 76 1017.9
20260510004503 52 38 6.0 14.0 0.00 0.00 0.00 75 1017.9
20260510004004 53 52 5.0 13.0 0.00 0.00 0.00 75 1017.9
20260510003503 53 56 7.0 16.0 0.00 0.00 0.00 75 1017.9
20260510003004 53 35 6.0 12.0 0.00 0.00 0.00 75 1018.0
20260510002504 53 38 5.0 12.0 0.00 0.00 0.00 76 1017.9
20260510002003 53 53 6.0 12.0 0.00 0.00 0.00 76 1017.9
20260510001504 53 35 6.0 14.0 0.00 0.00 0.00 76 1017.8
20260510000504 53 36 6.0 12.0 0.00 0.00 0.00 75 1017.7
20260510000004 53 11 7.0 15.0 0.00 0.00 0.00 75 1017.7
20260509235504 54 30 7.0 17.0 0.00 0.00 0.00 75 1017.7
20260509235004 54 24 7.0 12.0 0.00 0.00 0.00 75 1017.7
20260509232504 54 69 6.0 12.0 0.00 0.00 0.00 74 1017.6
20260509232004 54 59 5.0 12.0 0.00 0.00 0.00 75 1017.6
20260509231504 54 31 6.0 10.0 0.00 0.00 0.00 75 1017.6
20260509231004 55 59 3.0 12.0 0.00 0.00 0.00 75 1017.6
20260509230503 55 64 3.0 10.0 0.00 0.00 0.00 75 1017.5
20260509230004 55 37 8.0 15.0 0.00 0.00 0.00 75 1017.6
20260509225004 55 56 5.0 12.0 0.00 0.00 0.00 75 1017.6
20260509224005 55 42 5.0 12.0 0.00 0.00 0.00 75 1017.5
20260509223504 56 18 5.0 10.0 0.00 0.00 0.00 75 1017.5
20260509223005 56 36 5.0 12.0 0.00 0.00 0.00 75 1017.5
20260509222503 56 56 6.0 14.0 0.00 0.00 0.00 75 1017.5
20260509221005 56 57 5.0 12.0 0.00 0.00 0.00 75 1017.5
20260509220004 56 47 6.0 13.0 0.00 0.00 0.00 75 1017.5
20260509215504 56 58 6.0 12.0 0.00 0.00 0.00 75 1017.4
20260509215004 57 66 6.0 12.0 0.00 0.00 0.00 75 1017.5
20260509214005 57 67 7.0 13.0 0.00 0.00 0.00 75 1017.5
20260509213504 57 71 7.0 14.0 0.00 0.00 0.00 74 1017.4
20260509213004 57 58 5.0 12.0 0.00 0.00 0.00 74 1017.4
20260509212503 57 65 6.0 12.0 0.00 0.00 0.00 74 1017.4
20260509212004 57 64 8.0 14.0 0.00 0.00 0.00 74 1017.3
20260509211503 57 61 6.0 13.0 0.00 0.00 0.00 74 1017.2
20260509210504 58 44 9.0 15.0 0.00 0.00 0.00 73 1017.2
20260509205504 58 35 7.0 13.0 0.00 0.00 0.00 72 1017.1
20260509205005 58 43 9.0 15.0 0.00 0.00 0.00 72 1017.1
20260509204503 58 30 10.0 16.0 0.00 0.00 0.00 72 1017.1
20260509204004 58 34 3.0 12.0 0.00 0.00 0.00 71 1017.1
20260509203505 58 43 3.0 12.0 0.00 0.00 0.00 71 1017.1
20260509203004 58 35 6.0 12.0 0.00 0.00 0.00 71 1017.0
20260509202503 58 62 7.0 12.0 0.00 0.00 0.00 70 1016.9
20260509201503 58 16 4.0 12.0 0.00 0.00 0.00 70 1017.1
20260509201003 59 50 5.0 10.0 0.00 0.00 0.00 70 1016.9
20260509200004 59 38 5.0 12.0 0.00 0.00 0.00 69 1016.8
20260509195504 59 24 5.0 16.0 0.00 0.00 0.00 69 1016.8
20260509195003 59 13 6.0 14.0 0.00 0.00 0.00 69 1016.8
20260509194504 60 14 6.0 14.0 0.00 0.00 0.00 68 1016.7
20260509193504 60 17 7.0 14.0 0.00 0.00 0.00 68 1016.6
20260509193004 61 28 7.0 15.0 0.00 0.00 0.00 67 1016.5
20260509192503 61 5 7.0 16.0 0.00 0.00 0.00 66 1016.6
20260509192003 61 17 6.0 14.0 0.00 0.00 0.00 66 1016.5
20260509191504 62 7 7.0 15.0 0.00 0.00 0.00 64 1016.5
20260509190003 64 35 7.0 14.0 0.00 0.00 0.00 61 1016.3
20260509185504 64 35 5.0 14.0 0.00 0.00 0.00 58 1016.3
20260509185003 65 22 5.0 12.0 0.00 0.00 0.00 55 1016.2
20260509184503 65 40 4.0 9.0 0.00 0.00 0.00 50 1016.1
20260509184004 65 39 4.0 10.0 0.00 0.00 0.00 49 1016.1
20260509183504 66 37 7.0 12.0 0.00 0.00 0.00 49 1016.0
20260509183004 66 34 6.0 13.0 0.00 0.00 0.00 48 1015.9
20260509182504 66 62 5.0 12.0 0.00 0.00 0.00 48 1015.9
20260509181504 67 62 6.0 14.0 0.00 0.00 0.00 47 1015.8
20260509181004 67 37 6.0 12.0 0.00 0.00 0.00 47 1015.8
20260509180504 68 66 5.0 10.0 0.00 0.00 0.00 46 1015.8
20260509180004 68 41 6.0 10.0 0.00 0.00 0.00 47 1015.8
20260509175504 69 43 5.0 12.0 0.00 0.00 0.00 46 1015.8
20260509174503 69 45 3.0 10.0 0.00 0.00 0.00 46 1015.8
20260509174004 69 35 4.0 12.0 0.00 0.00 0.00 46 1015.8
20260509173503 69 60 6.0 12.0 0.00 0.00 0.00 46 1015.8
20260509173004 69 93 6.0 12.0 0.00 0.00 0.00 46 1015.8
20260509172004 69 62 5.0 12.0 0.00 0.00 0.00 48 1015.8
20260509171004 69 91 6.0 12.0 0.00 0.00 0.00 48 1015.7
20260509170504 69 45 5.0 10.0 0.00 0.00 0.00 49 1015.8
20260509170003 69 89 3.0 9.0 0.00 0.00 0.00 49 1015.9
20260509165503 69 63 5.0 10.0 0.00 0.00 0.00 50 1015.9
20260509165003 69 35 3.0 9.0 0.00 0.00 0.00 50 1015.9
20260509164504 69 60 3.0 10.0 0.00 0.00 0.00 51 1015.9
20260509164004 69 18 4.0 12.0 0.00 0.00 0.00 51 1016.0
20260509163503 69 50 5.0 13.0 0.00 0.00 0.00 50 1015.9
20260509163004 68 103 3.0 6.0 0.00 0.00 0.00 51 1016.0
20260509162503 68 88 5.0 10.0 0.00 0.00 0.00 51 1015.9
20260509162004 68 101 6.0 9.0 0.00 0.00 0.00 52 1015.9
20260509161503 67 72 4.0 8.0 0.00 0.00 0.00 53 1015.9
20260509161003 67 64 3.0 10.0 0.00 0.00 0.00 53 1015.9
20260509160003 67 93 7.0 10.0 0.00 0.00 0.00 51 1016.0
20260509155503 67 106 6.0 12.0 0.00 0.00 0.00 51 1016.0
20260509155003 68 95 5.0 12.0 0.00 0.00 0.00 52 1016.1
20260509154503 68 98 6.0 10.0 0.00 0.00 0.00 54 1016.0
20260509154003 68 114 3.0 8.0 0.00 0.00 0.00 53 1016.0
20260509153504 68 101 5.0 9.0 0.00 0.00 0.00 51 1016.0